Mobile, AL

6:27 AM CDT on April 30, 2017 (GMT -0500)
Mobile Regional

Weather History for KMOB - February, 2013

Change the Weather History Date:

Thursday, February 21, 2013

  Actual Average Record
Temperature  
Mean Temperature 54 °F 55 °F  
Max Temperature 66 °F 66 °F 79 °F (2005)
Min Temperature 42 °F 45 °F 28 °F (1978)
Degree Days  
Heating Degree Days 11 10  
Month to date heating degree days 214 256  
Since 1 July heating degree days 1125 1377  
Cooling Degree Days 0 0  
Month to date cooling degree days 0 0  
Year to date cooling degree days 26 7  
Growing Degree Days 6 (Base 50)    
Moisture  
Dew Point 47 °F    
Average Humidity 70    
Maximum Humidity 93    
Minimum Humidity 47    
Precipitation  
Precipitation 0.00 in 0.19 in 4.22 in (1887)
Month to date precipitation 4.47 3.82  
Year to date precipitation 7.34 9.47  
Snow  
Snow 0.00 in 0.00 in - ()
Month to date snowfall 0.0 0.1  
Since 1 July snowfall 0.0 0.1  
Snow Depth 0.00 in    
Sea Level Pressure  
Sea Level Pressure 29.97 in    
Wind  
Wind Speed 12 mph (ESE)    
Max Wind Speed 25 mph    
Max Gust Speed 33 mph    
Visibility 9 miles    
Events      
T = Trace of Precipitation, MM = Missing Value Source: NWS Daily Summary

Daily Weather History Graph

Daily Weather History Graph

Search for Another Location

Airport or City:

Trip Planner

Search our weather history database for the weather conditions in past years. The results will help you decide how hot, cold, wet, or windy it might be!

Date:

Astronomy

Feb. 21, 2013 Rise Set
Actual Time 6:27 AM CST 5:45 PM CST
Civil Twilight 6:03 AM CST 6:10 PM CST
Nautical Twilight 5:35 AM CST 6:38 PM CST
Astronomical Twilight 5:07 AM CST 7:06 PM CST
Moon 2:10 PM CST (2/21) 3:21 AM CST (2/21)
Length of Visible Light 12h 07m
Length of Day
11h 18m
Waxing Gibbous, 84% of the Moon is Illuminated
Feb 21
Waxing Gibbous
Feb 25
Full
Mar 4
Last Quarter
Mar 11
New
Mar 19
First Quarter

Hourly Weather History & Observations

Time (CST) Temp. Windchill Dew Point Humidity Pressure Visibility Wind Dir Wind Speed Gust Speed Precip Events Conditions
12:56 AM 44.1 °F 39.0 °F 30.0 °F 58% 30.07 in 10.0 mi NE 9.2 mph - N/A   Clear
1:56 AM 43.0 °F 39.5 °F 30.0 °F 60% 30.06 in 10.0 mi East 5.8 mph - N/A   Clear
2:56 AM 43.0 °F 39.5 °F 30.9 °F 62% 30.04 in 10.0 mi ENE 5.8 mph - N/A   Clear
3:56 AM 44.1 °F 39.5 °F 30.0 °F 58% 30.03 in 10.0 mi NE 8.1 mph - N/A   Scattered Clouds
4:56 AM 45.0 °F 41.2 °F 28.9 °F 53% 30.04 in 10.0 mi ENE 6.9 mph - N/A   Mostly Cloudy
5:56 AM 46.0 °F 41.9 °F 30.0 °F 54% 30.04 in 7.0 mi ENE 8.1 mph - N/A   Overcast
6:14 AM 46.4 °F 42.4 °F 28.4 °F 50% 30.05 in 7.0 mi ENE 8.1 mph - N/A   Overcast
6:56 AM 46.9 °F - 30.0 °F 52% 30.05 in 7.0 mi ENE 10.4 mph - N/A   Overcast
7:36 AM 48.2 °F - 30.2 °F 50% 30.06 in 10.0 mi ENE 11.5 mph - N/A   Overcast
7:56 AM 48.9 °F - 30.9 °F 50% 30.07 in 10.0 mi East 8.1 mph - N/A   Overcast
8:56 AM 52.0 °F - 32.0 °F 47% 30.08 in 10.0 mi East 9.2 mph - N/A   Overcast
9:56 AM 55.9 °F - 36.0 °F 47% 30.05 in 10.0 mi East 13.8 mph - N/A   Overcast
10:56 AM 59.0 °F - 42.1 °F 53% 30.03 in 10.0 mi ESE 16.1 mph - N/A   Overcast
11:56 AM 63.0 °F - 46.0 °F 54% 30.01 in 10.0 mi SE 15.0 mph - N/A   Overcast
12:56 PM 63.0 °F - 50.0 °F 63% 29.98 in 10.0 mi SE 15.0 mph 24.2 mph N/A   Mostly Cloudy
1:40 PM 64.4 °F - 53.6 °F 68% 29.94 in 7.0 mi SE 20.7 mph - N/A   Overcast
1:56 PM 63.0 °F - 54.0 °F 72% 29.93 in 7.0 mi SE 20.7 mph - N/A   Overcast
2:19 PM 64.4 °F - 55.4 °F 73% 29.92 in 10.0 mi SE 18.4 mph 26.5 mph N/A   Overcast
2:56 PM 64.0 °F - 57.0 °F 78% 29.92 in 10.0 mi SE 16.1 mph 24.2 mph N/A   Overcast
3:56 PM 64.9 °F - 59.0 °F 81% 29.89 in 10.0 mi SE 18.4 mph 28.8 mph N/A   Overcast
4:56 PM 64.9 °F - 59.0 °F 81% 29.88 in 10.0 mi SE 17.3 mph 25.3 mph N/A   Overcast
5:56 PM 64.0 °F - 59.0 °F 84% 29.89 in 10.0 mi SE 15.0 mph 24.2 mph N/A   Mostly Cloudy
6:52 PM 64.4 °F - 59.0 °F 83% 29.90 in 10.0 mi North 13.8 mph 28.8 mph N/A   Mostly Cloudy
6:56 PM 64.0 °F - 60.1 °F 87% 29.91 in 10.0 mi NE 11.5 mph 29.9 mph N/A   Mostly Cloudy
7:11 PM 64.4 °F - 60.8 °F 88% 29.92 in 10.0 mi SE 17.3 mph - N/A   Overcast
7:47 PM 64.4 °F - 60.8 °F 88% 29.92 in 10.0 mi SE 12.7 mph - N/A   Overcast
7:56 PM 64.0 °F - 60.1 °F 87% 29.92 in 10.0 mi SSE 11.5 mph - N/A   Overcast
8:23 PM 64.4 °F - 60.8 °F 88% 29.92 in 8.0 mi SE 12.7 mph - N/A   Overcast
9:56 PM 64.9 °F - 62.1 °F 90% 29.92 in 7.0 mi SSE 17.3 mph 23.0 mph N/A   Overcast
10:56 PM 66.0 °F - 63.0 °F 90% 29.91 in 9.0 mi SSE 12.7 mph - N/A   Overcast
11:56 PM 66.0 °F - 63.0 °F 90% 29.90 in 9.0 mi SSE 11.5 mph - N/A   Overcast